Starlink 35287

operational
NORAD ID: 65754 Int'l Des: 2025-216 Owner: SPXS Country: US Constellation: starlink
NOTLE

About Starlink 35287

Description loading...

Live Position

Loading 3D Globe...

Upcoming Passes

Altitude History

Altitude vs Time

uPlot chart will show altitude changes over time

Two-Line Element Set

1 65754C 25216W 25277.72687500 -.01443600 00000+0 -56804-2 0 2774
2 65754 53.1547 343.3016 0000870 69.3396 211.2933 15.87620967 18
Epoch: Oct 4, 2025 • Age: 31 hours

Current Status

Altitude 315.0 km
Velocity 7.72 km/s
Sub-Earth Point -2.04°S, 48.29°E
Launch Date Sep 25, 2025
Age 9 days
Type internet

Technical Details

Classification Payload
Mass 575.00 kg
Dry Mass 530.00 kg
Total Mass 575.00 kg
Length 0.30 m
Diameter 4.10 m
Span 29.00 m
Shape Box + pan
Manufacturer SPXS
Bus Type Starlink V2MO
Phase Status In Orbit
Owner/State SPXS/US

Large Constellations

Loading constellations...